Total_Precipitation_Accumulation
0.31 0.45 0.81 0.85 0.70 0.60 0.59 0.67 0.71 0.69 0.66 0.67 0.71 0.70 0.79 0.84 0.85 0.76 0.70 0.80 0.84 0.83 0.84 0.84 0.85 0.85 0.89 0.97 0.97 0.92 0.87 0.88 1.06 1.17 1.36 1.58 1.85 2.08 2.30 2.46 2.44 1.90 1.73
0.12 0.24 0.61 0.70 0.62 0.54 0.52 0.58 0.63 0.64 0.65 0.67 0.64 0.61 0.58 0.59 0.62 0.65 0.71 0.81 0.84 0.84 0.81 0.82 0.79 0.77 0.82 0.81 0.79 0.74 0.80 1.05 1.34 1.56 1.93 2.08 2.22 2.30 2.33 2.44 2.44 1.84 1.65
0.08 0.14 0.40 0.56 0.52 0.49 0.52 0.55 0.55 0.57 0.59 0.67 0.64 0.58 0.53 0.53 0.59 0.68 0.75 0.71 0.78 0.78 0.69 0.72 0.71 0.72 0.77 0.78 0.74 0.74 0.89 1.21 1.69 2.11 2.34 2.16 1.89 2.18 2.24 2.35 2.23 1.64 1.55
0.06 0.09 0.26 0.48 0.46 0.39 0.43 0.47 0.48 0.47 0.48 0.57 0.58 0.55 0.52 0.54 0.62 0.69 0.69 0.66 0.75 0.70 0.68 0.72 0.74 0.69 0.65 0.69 0.74 0.86 1.02 1.27 1.72 2.18 2.09 1.84 1.64 1.80 1.95 1.84 1.75 1.50 1.41
0.08 0.08 0.21 0.38 0.40 0.35 0.36 0.44 0.43 0.38 0.44 0.56 0.58 0.53 0.51 0.56 0.62 0.66 0.67 0.71 0.77 0.80 0.77 0.77 0.74 0.65 0.62 0.64 0.70 0.88 1.10 1.44 1.77 1.86 1.56 1.69 1.84 1.80 1.70 1.58 1.57 1.39 1.16
0.09 0.10 0.18 0.29 0.32 0.33 0.33 0.39 0.39 0.40 0.44 0.55 0.64 0.56 0.53 0.58 0.67 0.75 0.76 0.75 0.71 0.78 0.74 0.74 0.65 0.61 0.57 0.59 0.72 0.89 1.22 1.60 1.58 1.23 1.18 1.41 1.38 1.64 1.57 1.51 1.42 1.23 0.99
0.09 0.12 0.16 0.28 0.35 0.40 0.41 0.41 0.42 0.41 0.40 0.48 0.57 0.54 0.54 0.63 0.73 0.82 0.80 0.73 0.64 0.69 0.68 0.65 0.66 0.66 0.64 0.65 0.76 0.86 1.11 1.42 1.25 1.04 1.07 1.28 1.15 1.35 1.46 1.46 1.43 1.19 0.97
0.11 0.11 0.18 0.29 0.34 0.38 0.43 0.44 0.46 0.44 0.42 0.44 0.53 0.58 0.60 0.65 0.70 0.72 0.76 0.74 0.67 0.64 0.59 0.61 0.62 0.61 0.66 0.70 0.80 0.84 0.98 1.09 0.92 0.84 0.89 0.98 1.01 1.18 1.40 1.31 1.26 1.14 0.94
0.34 0.21 0.22 0.26 0.33 0.39 0.50 0.52 0.49 0.46 0.45 0.46 0.55 0.59 0.57 0.58 0.67 0.68 0.76 0.75 0.70 0.65 0.59 0.61 0.57 0.57 0.64 0.67 0.74 0.79 0.95 1.08 0.90 0.92 0.82 0.80 0.87 1.08 1.35 1.24 1.15 1.14 1.01
0.64 0.40 0.34 0.35 0.45 0.49 0.52 0.50 0.49 0.45 0.44 0.46 0.56 0.58 0.66 0.65 0.71 0.74 0.77 0.79 0.72 0.72 0.66 0.68 0.65 0.64 0.69 0.71 0.78 0.91 1.07 1.02 0.97 1.03 0.89 0.66 0.81 1.10 1.36 1.36 1.32 1.32 1.16
0.97 0.82 0.74 0.64 0.58 0.64 0.60 0.53 0.62 0.59 0.59 0.62 0.72 0.83 0.98 1.12 1.10 1.17 1.00 0.98 0.88 0.92 0.98 0.96 0.93 0.87 0.87 0.82 1.02 1.14 1.06 1.13 1.29 1.18 0.96 0.73 0.86 1.27 1.46 1.52 1.47 1.43 1.38
1.27 1.18 1.21 0.98 0.76 0.70 0.65 0.86 1.10 1.05 1.11 1.19 1.27 1.33 1.58 1.62 1.66 1.34 1.35 1.40 1.37 1.51 1.51 1.53 1.62 1.36 1.08 0.93 1.18 1.33 1.17 1.20 1.31 1.06 0.82 0.82 1.01 1.40 1.59 1.51 1.47 1.44 1.44
1.73 1.50 1.30 1.26 1.18 1.19 1.20 1.21 1.31 1.51 1.62 1.73 1.81 1.86 2.07 1.79 1.65 1.53 1.72 1.89 1.83 1.78 1.64 1.88 2.06 1.68 1.60 1.75 1.76 1.60 1.49 1.35 1.41 1.21 1.03 1.07 1.24 1.56 1.74 1.59 1.58 1.51 1.35
2.37 2.30 2.19 1.95 1.77 1.80 1.65 1.46 1.40 1.44 1.52 1.62 1.75 1.81 2.03 2.14 2.02 2.07 2.21 2.01 1.96 1.99 2.19 2.15 2.36 2.23 2.08 1.92 1.89 1.99 1.93 1.67 1.65 1.58 1.51 1.49 1.56 1.74 1.90 1.80 1.72 1.68 1.52
2.89 3.14 3.57 3.30 2.67 2.31 2.03 1.75 1.44 1.42 1.32 1.29 1.41 1.64 1.81 1.99 2.12 2.24 2.09 1.95 1.70 1.89 2.17 2.28 2.09 2.30 2.28 2.26 2.19 2.18 2.21 1.95 1.79 1.72 1.75 1.92 1.86 1.84 1.99 2.05 1.97 1.93 1.87
3.74 3.77 3.89 4.24 3.59 2.82 2.29 1.95 1.65 1.38 1.40 1.41 1.47 1.49 1.65 1.83 1.90 1.96 1.91 1.86 1.78 1.88 2.07 2.08 2.08 2.34 2.43 2.37 2.06 1.92 1.91 1.95 1.86 1.71 1.85 1.95 1.99 1.82 1.90 2.18 2.29 2.27 2.29
4.32 4.44 4.49 4.69 4.26 3.66 3.09 2.49 1.97 1.71 1.49 1.55 1.63 1.46 1.44 1.59 1.64 1.74 1.76 1.70 1.76 1.75 1.78 1.76 1.84 2.06 2.06 2.01 1.84 1.71 1.74 1.82 1.86 1.84 1.73 1.76 1.88 1.94 1.90 2.07 2.26 2.30 2.45
4.99 5.22 5.24 4.99 4.80 4.28 3.63 3.05 2.61 2.30 1.99 1.77 1.66 1.48 1.30 1.37 1.41 1.50 1.42 1.42 1.43 1.40 1.40 1.52 1.59 1.77 1.92 2.00 1.97 1.78 1.85 1.94 1.82 1.90 1.87 1.80 2.04 1.90 2.16 2.28 2.27 2.22 2.48
6.18 6.59 6.35 5.65 5.13 4.55 3.94 3.43 3.21 2.98 2.54 2.11 1.94 1.73 1.52 1.37 1.32 1.36 1.38 1.38 1.17 1.21 1.24 1.19 1.41 1.62 1.84 1.90 1.67 1.72 1.62 1.65 1.67 1.60 1.80 1.69 1.84 1.95 2.13 2.20 2.30 2.21 2.50
6.52 7.21 7.08 6.38 5.47 4.73 4.28 3.80 3.56 3.26 2.78 2.27 2.04 1.90 1.68 1.54 1.35 1.29 1.20 1.14 1.01 1.13 1.27 1.35 1.65 1.65 1.59 1.63 1.43 1.61 1.51 1.33 1.43 1.54 1.53 1.62 1.67 1.51 1.77 2.02 2.25 1.93 2.26
5.50 6.08 5.92 5.27 4.75 4.13 3.57 3.01 2.86 2.62 2.35 2.09 1.88 1.65 1.63 1.55 1.35 1.31 1.19 1.27 1.09 1.09 1.11 1.12 1.29 1.37 1.31 1.38 1.68 1.78 1.49 1.25 1.31 1.35 1.35 1.56 1.59 1.53 1.84 2.19 2.30 2.22 1.95
3.99 4.24 3.74 3.52 3.49 3.06 2.72 2.62 2.46 2.25 2.03 1.81 1.68 1.59 1.33 1.29 1.22 1.15 1.26 1.19 1.12 1.16 1.10 1.12 1.26 1.33 1.31 1.36 1.55 1.71 1.54 1.58 1.47 1.14 1.34 1.44 1.50 1.66 1.78 1.91 2.17 2.37 2.05
2.79 2.77 2.55 2.47 2.75 2.66 2.59 2.49 2.39 2.32 2.23 1.96 1.63 1.53 1.27 1.13 1.10 1.16 1.16 1.19 1.22 1.03 1.11 1.19 1.17 1.22 1.26 1.24 1.27 1.51 1.55 1.56 1.39 1.15 1.19 1.24 1.38 1.61 1.68 1.80 1.67 1.81 1.94
1.90 1.99 2.24 2.30 2.41 2.32 2.35 2.13 1.90 1.75 1.62 1.52 1.45 1.43 1.42 1.24 1.13 1.05 1.08 1.24 1.25 1.08 1.20 0.96 1.02 1.21 1.26 1.11 1.10 1.11 1.16 1.30 1.42 1.40 1.26 1.18 1.24 1.33 1.42 1.51 1.55 1.63 1.69
1.46 1.70 2.07 2.15 2.16 2.05 2.00 2.00 2.01 1.88 1.82 1.68 1.61 1.67 1.66 1.63 1.43 1.15 1.08 1.22 1.30 1.24 1.27 1.16 1.31 1.20 1.11 1.05 1.06 1.13 1.16 1.11 1.06 1.28 1.37 1.30 1.26 1.09 1.12 1.19 1.27 1.37 1.41
1.30 1.41 1.61 1.78 1.95 1.99 2.01 2.07 2.02 1.96 1.98 1.79 1.62 1.53 1.52 1.54 1.50 1.39 1.29 1.39 1.42 1.35 1.34 1.27 1.31 1.27 1.23 1.20 1.08 1.04 1.25 1.22 1.09 1.21 1.16 1.16 1.14 0.90 0.94 1.05 1.09 1.17 1.26